Showing default

HIBER-2, 43774

Orbit data source: Space-Track

HIBER-2, 43774 is a payload satellite owned by Hiber (NL) in SSO that was launched on Mon, 03 Dec 2018 UTC via an FALCON 9 launch vehicle from the Air Force Western Test Range (AFWTR). Payload-class satellites include a variety of spacecraft equipped with specific instruments for various scientific and technological missions. These include communications satellites like Starlink; space stations such as the ISS; scientific satellites like the Hubble; Earth observation satellites from companies like Planet Labs, Umbra, and HawkEye 360; GPS; miniature CubeSats for education and research; and military/defense satellites.

Loading next visibility...
Identifier
43774, 2018-099S
Orbit
SSO
Country
Flag of UnknownUnknown / NETH
Related business
Manufacturer
ISIS BV
Mission
Operational Commercial Communications
Bus & Motor
CUBESAT 6U, Unknown motor
Mass
10 kg wet, 10 kg dry
Launch date (UTC)
2018-12-03 (7 years ago)
Launch vehicle
FALCON 9
Launch site
Air Force Western Test Range (AFWTR)
Object type
Payload
Rocket body
Debris
Shape & HBR
Box + 2 Pan, 0.7 m
Radar Cross Section
0.143 m², Medium (>0.1 m² and < 1m²)

Expand to show TLE details & history
Last TLE update: 19 hours ago

TLE from 19 hours ago
0 HIBER-2
1 43774U 18099S   25292.19174334  .00140239  00000-0  22996-2 0  9993
2 43774  97.4740   4.9220 0003169  11.6327 348.4997 15.51944459377484
Epoch: 2025-10-19T04:36Z
TLE epoch observation values (Epoch: 2025-10-19T04:36:06.624Z)
Latitude
-0.00011°
Longitude
-92.01753°
Altitude
412.072 km
Speed
7.665 km/s
True Right ascension
00h 19m 41s
True Declination
0° 00' 00"
Sunlit
Object was in full shadow at epoch
Visualization orbit readout
Latitude
Unknown
Longitude
Unknown
Altitude
Unknown
Speed
Unknown
Apparent Right ascension
Unknown
Apparent Declination
Unknown
Sunlit
N/A
Visualization observer readout
Local Sidereal Time
18:35:11
Azimuth
Unknown
Elevation
Unknown
Doppler factor
Unknown
Orbital elements
Apogee altitude
410.126 km
Perigee altitude
405.825 km
Semi-major axis
6,786.113 km
Eccentricity
0.00032
Inclination
97.474°
RAAN
4.922°
Arg. of periapsis
11.6327°
True anomaly
348.49246°
Mean anomaly
348.4997°
Eccentric anomaly
348.49608°
Mean motion
3.8825 °/min
Orbital period
92.72 mins
BSTAR
0.0022996
Loading maneuver chart data...
Computing Atmospheric mass density...
Loading historical data...
Loading historical data...
Loading historical data...
Loading historical data...
Loading historical data...
Loading historical data...
Loading historical data...

Documentation

Showing up to 5 results
|